Regional Weather Roundup
Issued by NWS

Home | Current Version | Previous Version | Text Only | Print | Product List | Glossary On
Versions: 1 2 3 4 5 6 7 8 9 10 11 12 13 14 15 16 17 18 19 20 21 22 23 24 25 26 27 28 29 30 31 32 33 34 35 36 37 38 39 40 41 42 43 44 45 46 47 48 49 50
000
ASUS42 KTBW 221310
RWRFL
FLORIDA REGIONAL WEATHER ROUNDUP
NATIONAL WEATHER SERVICE TAMPA BAY RUSKIN FL
900 AM EDT MON SEP 22 2014

NOTE: "FAIR" INDICATES FEW OR NO CLOUDS BELOW 12,000 FEET WITH NO
SIGNIFICANT WEATHER AND/OR OBSTRUCTIONS TO VISIBILITY.


FLZ001>010-012>015-112-114-115-221400-
PANHANDLE FLORIDA

CITY           SKY/WX    TMP DP  RH WIND       PRES   REMARKS
PENSACOLA      SUNNY     73  70  90 NW6       30.03R
PENSACOLA NAS  MOSUNNY   73  71  93 NW5       30.03R
MILTON NAS     MOSUNNY   74  68  81 NW6       30.04R
CRESTVIEW      MOSUNNY   69  66  90 CALM      30.05R
DUKE FIELD     FAIR      70  70  99 CALM      30.03S
VALPARAISO     MOSUNNY   74  67  80 CALM      30.03R
TRI COUNTY     FAIR      70  69  97 MISG      30.04R
PANAMA CITY    FAIR      72  68  87 CALM      30.03R
TYNDALL AFB    SUNNY     73  73 100 VRB1      30.04R
APALACHICOLA   SUNNY     75  67  76 NE5       30.03R

STATION/POSITION SKY/WX   TEMP    WIND        PRES    WAVE   SWELL
                          AIR SEA DIR/SP/G            HT/PER HT/PER
                          (F)     (DEG/KT/KT) (MB)    (FT/S) (FT/S)
30.1N   87.6W              81 85   10/  4/  6 1016.8R   1/ 5   2/ 5
29.2N   88.2W              82 84   50/ 14/ 14 1016.7R   2/ 5
28.8N   86.0W              81 84  100/  4/  6 1016.0    2/ 4   2/ 5
PANAMA CITY BEAC           73 84   30/  5/  8 1016.8R
CAPE SAN BLAS    NOT AVBL
TOWER C                    81      80/  3/  5 1016.7R
28.5N   84.5W              81 84  180/  4/  6 1016.2R   2/ 6   2/ 6

$$
FLZ011-016>038-118-127-128-134-139-239-221400-
NORTH FLORIDA

CITY           SKY/WX    TMP DP  RH WIND       PRES   REMARKS
MARIANNA       SUNNY     70  69  97 CALM      30.03R
TALLAHASSEE    MOSUNNY   70  66  87 CALM      30.03R
PERRY          MOSUNNY   70  70 100 CALM      30.05R
CROSS CITY       N/A     73  70  90 CALM      30.03R
LAKE CITY      FAIR      72  70  94 CALM      30.05R
GAINESVILLE    SUNNY     73  71  93 CALM      30.05R
MAYPORT NAS    PTSUNNY   77  72  84 W3        30.04R
JACKSONVILLE   MOSUNNY   70  68  93 CALM      30.04R
JAX NAS        MOSUNNY   76  68  76 SW3       30.05R
JAX CRAIG      SUNNY     75  70  84 CALM      30.04R
JAX CECIL      SUNNY     68  66  94 CALM      30.05R
ST AUGUSTINE   MOSUNNY   75  71  87 SW3       30.05R

STATION/POSITION SKY/WX   TEMP    WIND        PRES    WAVE   SWELL
                          AIR SEA DIR/SP/G            HT/PER HT/PER
                          (F)     (DEG/KT/KT) (MB)    (FT/S) (FT/S)
SHELL POINT                69      10/  5/  6   N/A
KEATON BEACH               72      50/  3/  5 1017.2R
CEDAR KEY                  76     110/  6/  6 1016.8R
FERNANDINA                 72 82  230/  3/  4 1016.8R
30.7N   81.3W                 82                N/A     2/10
MAYPORT                    75 82  280/  4/  5   N/A
31.4N   80.9W              80 82  240/ 14/ 16 1016.7R   2/ 4   2/ 9
ST AUGUSTINE               74     200/  3/  5 1018.1R

$$
FLZ040-043>046-052-053-057-058-063-144-221400-
INTERIOR CENTRAL FLORIDA

CITY           SKY/WX    TMP DP  RH WIND       PRES   REMARKS
OCALA          MOSUNNY   75  72  88 S7        30.04R
THE VILLAGES     N/A     77  75  94 CALM      29.95R
LEESBURG       MOSUNNY   78  74  87 CALM      30.05R
SANFORD        PTSUNNY   78  74  87 S5        30.04R
ORLANDO EXEC   PTSUNNY   77  74  90 S3        30.05R
ORLANDO INTL   PTSUNNY   76  75  97 S3        30.05R
KISSIMMEE      PTSUNNY   75  75 100 CALM      30.05S
WINTER HAVEN   CLOUDY    76  74  93 SW7       30.05R
LAKELAND       PTSUNNY   75  72  88 S6        30.05R
BARTOW         PTSUNNY   73 N/A N/A CALM      30.06R
OKEECHOBEE       N/A     73  73 100 MISG      30.06R

$$
FLZ041-047-054-059-064-141-147-221400-
EAST CENTRAL FLORIDA

CITY           SKY/WX    TMP DP  RH WIND       PRES   REMARKS
ORMOND BEACH   SUNNY     73  72  94 CALM      30.05R
DAYTONA BEACH  PTSUNNY   75  74  96 S3        30.05R
DELAND         PTSUNNY   75  73  94 S3        30.06R
JFK SPACE CTR  CLOUDY    77  74  91 W2        30.05R
TITUSVILLE     CLOUDY    75  73  94 VRB5      30.05R
CAPE CANAVERAL CLOUDY    77  74  90 W3        30.04R
PATRICK AFB    CLOUDY    78  75  91 SW6       30.04R
MELBOURNE      CLOUDY    79  74  84 SW3       30.04R
VERO BEACH     PTSUNNY   75  73  93 W3        30.05R
FT PIERCE      PTSUNNY   78  73  84 CALM      30.05R
STUART         PTSUNNY   75  73  94 CALM      30.06R

STATION/POSITION SKY/WX   TEMP    WIND        PRES    WAVE   SWELL
                          AIR SEA DIR/SP/G            HT/PER HT/PER
                          (F)     (DEG/KT/KT) (MB)    (FT/S) (FT/S)
28.5N   80.2W              80 84  270/  4/  6 1017.1R
28.9N   78.5W              81 84  330/  2/  4 1017.4R   5/ 8   5/ 8
TRIDENT PIER               78 83  240/  4/  5 1016.9R
28.4N   80.5W                 83                N/A     1/ 8
27.6N   80.2W                 82                N/A     3/10   2/11

$$
FLZ050-056-061-142-242-148-248-149-249-151-251-155-255-
160-260-221400-
WEST CENTRAL FLORIDA

CITY           SKY/WX    TMP DP  RH WIND       PRES   REMARKS
CRYSTAL RIVER  FAIR      75  72  88 CALM      30.03S
INVERNESS      CLOUDY    73  66  78 CALM      30.04R
BROOKSVILLE    CLOUDY    76  74  93 SE5       30.04R
ZEPHYRHILLS    CLOUDY    68  68 100 CALM      30.05R
CLEARWATER     CLOUDY    79  76  90 SE6       30.02S
TAMPA INTL     CLOUDY    79  73  82 SE3       30.04R
TAMPA EXEC     CLOUDY    77  73  88 CALM      30.04S
PLANT CITY     LGT RAIN  77 N/A N/A S3        30.06R
MACDILL AFB    CLOUDY    78  78 100 SE7       30.03R
ST PETERSBURG  CLOUDY    78  75  90 S7        30.01R
SARASOTA       CLOUDY    76  75  97 E5        30.02R
VENICE           N/A    N/A N/A N/A MISG        N/A

STATION/POSITION SKY/WX   TEMP    WIND        PRES    WAVE   SWELL
                          AIR SEA DIR/SP/G            HT/PER HT/PER
                          (F)     (DEG/KT/KT) (MB)    (FT/S) (FT/S)
CEDAR KEY                  76     110/  6/  6 1016.8R
28.5N   84.5W              81 84  180/  4/  6 1016.2R   2/ 6   2/ 6
27.3N   84.3W                 85                N/A     3/ 4
CLEARWATER BEACH NOT AVBL
MIDDLE TAMPA BAY           78     160/  7/  8 1017.0R
VENICE                     78 84  110/  4/  5 1016.8R

$$
FLZ066-069-070-075>078-162-262-165-265-221400-
SOUTHWEST FLORIDA AND KEYS

CITY           SKY/WX    TMP DP  RH WIND       PRES   REMARKS
PUNTA GORDA    PTSUNNY   80  75  84 SE6       30.06R
FT MYERS       PTSUNNY   76  75  97 SE3       30.03R
SOUTHWEST INTL CLOUDY    77  61  57 SE3       30.04R
NAPLES         CLOUDY    79  75  87 E5        30.03R
MARCO ISLAND   SUNNY     79  75  89 CALM      30.04R
MARATHON       CLOUDY    86  77  74 SE5       30.03R HX  97
KEY WEST NAS   CLOUDY    86  76  71 CALM      30.04R HX  96
KEY WEST INTL  CLOUDY    86  77  74 CALM      30.04R HX  97

STATION/POSITION SKY/WX   TEMP    WIND        PRES    WAVE   SWELL
                          AIR SEA DIR/SP/G            HT/PER HT/PER
                          (F)     (DEG/KT/KT) (MB)    (FT/S) (FT/S)
VENICE                     78 84  110/  4/  5 1016.8R
NAPLES                     79 88  110/  3/  4 1017.6R
DRY TORTUGAS               80     120/  2/  3 1016.6F
NW FL BAY                  81      30/  7/  8 1016.2R
SAND KEY                   84      20/  3/  5 1017.1R
SOMBRERO KEY               85     120/  5/  5 1017.8R
LONG KEY                   84 85  130/  6/  7 1017.0R
MOLASSES REEF              84 86  100/  7/  7 1017.4R

$$
FLZ067-068-071>074-168-172>174-221400-
SOUTHEAST FLORIDA

CITY           SKY/WX    TMP DP  RH WIND       PRES   REMARKS
W PALM BEACH   PTSUNNY   80  74  81 CALM      30.04R
FT LAUDER-EXEC MOSUNNY   82  77  84 NE3       30.05R
FT LAUDERDALE  PTSUNNY   83  77  82 N3        30.05R
POMPANO BEACH  PTSUNNY   83  75  77 N3        30.05R
PEMBROKE PINES MOSUNNY   83  77  82 NE3       30.06R
OPA LOCKA      MOSUNNY   83  76  79 NE3       30.06R
MIAMI          PTSUNNY   83  75  77 E3        30.05R
WEST KENDALL   PTSUNNY   83  76  79 CALM      30.05R
HOMESTEAD      PTSUNNY   81  76  83 CALM      30.06R

STATION/POSITION SKY/WX   TEMP    WIND        PRES    WAVE   SWELL
                          AIR SEA DIR/SP/G            HT/PER HT/PER
                          (F)     (DEG/KT/KT) (MB)    (FT/S) (FT/S)
PORT EVERGLADES            83      30/  3/  6 1017.5
VIRGINIA KEY               84 84   70/  3/  4   N/A
LAKE WORTH                 84 85     CALM     1017.2R
FOWEY ROCKS                84 85  110/  4/  5 1018.0R
SETTLEMENT POINT           84      CALM  /  1 1018.4R

$$




USA.gov is the U.S. government's official web portal to all federal, state and local government web resources and services.